owner,sensor,date,latitude,longitude,vertical_datum,mass_concentration_of_oxygen_in_sea_water,qcFlag 
DISL,ioos:station:DISL:CATA:1,2012-01-01T00:00:00Z,30.3085,-88.1395,2.147,9.37,1111122 
DISL,ioos:station:DISL:CATA:1,2012-01-01T00:30:00Z,30.3085,-88.1395,2.142,9.45,1111122 
DISL,ioos:station:DISL:CATA:1,2012-01-01T01:00:00Z,30.3085,-88.1395,2.136,9.46,1111122 
DISL,ioos:station:DISL:CATA:1,2012-01-01T01:30:00Z,30.3085,-88.1395,2.132,9.41,1111122 
DISL,ioos:station:DISL:CATA:1,2012-01-01T02:00:00Z,30.3085,-88.1395,2.137,9.24,1111122 
DISL,ioos:station:DISL:CATA:1,2012-01-01T02:30:00Z,30.3085,-88.1395,2.144,9.2,1111122 
DISL,ioos:station:DISL:CATA:1,2012-01-01T03:00:00Z,30.3085,-88.1395,2.142,9.11,1111122 
DISL,ioos:station:DISL:CATA:1,2012-01-01T03:30:00Z,30.3085,-88.1395,2.141,9.04,1111122 
DISL,ioos:station:DISL:CATA:1,2012-01-01T04:00:00Z,30.3085,-88.1395,2.138,8.93,1111122 
DISL,ioos:station:DISL:CATA:1,2012-01-01T04:30:00Z,30.3085,-88.1395,2.124,8.94,1111122 
DISL,ioos:station:DISL:CATA:1,2012-01-01T05:00:00Z,30.3085,-88.1395,2.1,8.58,1111122 
DISL,ioos:station:DISL:CATA:1,2012-01-01T05:30:00Z,30.3085,-88.1395,2.086,9.13,1111122 
DISL,ioos:station:DISL:CATA:1,2012-01-01T06:00:00Z,30.3085,-88.1395,2.073,8.99,1111122 
DISL,ioos:station:DISL:CATA:1,2012-01-01T06:30:00Z,30.3085,-88.1395,2.058,9.24,1111122 
DISL,ioos:station:DISL:CATA:1,2012-01-01T07:00:00Z,30.3085,-88.1395,2.043,9.02,1111122 
DISL,ioos:station:DISL:CATA:1,2012-01-01T07:30:00Z,30.3085,-88.1395,2.031,8.78,1111122 
DISL,ioos:station:DISL:CATA:1,2012-01-01T08:00:00Z,30.3085,-88.1395,2.022,8.6,1111122 
DISL,ioos:station:DISL:CATA:1,2012-01-01T08:30:00Z,30.3085,-88.1395,2.013,8.48,1111122 
DISL,ioos:station:DISL:CATA:1,2012-01-01T09:00:00Z,30.3085,-88.1395,2.004,8.4,1111122 
DISL,ioos:station:DISL:CATA:1,2012-01-01T09:30:00Z,30.3085,-88.1395,2.0,8.4,1111122 
DISL,ioos:station:DISL:CATA:1,2012-01-01T10:00:00Z,30.3085,-88.1395,1.986,8.34,1111122 
DISL,ioos:station:DISL:CATA:1,2012-01-01T10:30:00Z,30.3085,-88.1395,1.988,8.32,1111122 
DISL,ioos:station:DISL:CATA:1,2012-01-01T11:00:00Z,30.3085,-88.1395,1.986,8.27,1111122 
DISL,ioos:station:DISL:CATA:1,2012-01-01T11:30:00Z,30.3085,-88.1395,1.986,8.28,1111122 
DISL,ioos:station:DISL:CATA:1,2012-01-01T12:00:00Z,30.3085,-88.1395,1.969,8.23,1111122 
DISL,ioos:station:DISL:CATA:1,2012-01-01T12:30:00Z,30.3085,-88.1395,1.973,8.24,1111122 
DISL,ioos:station:DISL:CATA:1,2012-01-01T13:00:00Z,30.3085,-88.1395,1.975,8.2,1111122 
DISL,ioos:station:DISL:CATA:1,2012-01-01T13:30:00Z,30.3085,-88.1395,1.966,8.01,1111122 
DISL,ioos:station:DISL:CATA:1,2012-01-01T14:00:00Z,30.3085,-88.1395,1.976,7.89,1111122 
DISL,ioos:station:DISL:CATA:1,2012-01-01T14:30:00Z,30.3085,-88.1395,1.987,7.86,1111122 
DISL,ioos:station:DISL:CATA:1,2012-01-01T15:00:00Z,30.3085,-88.1395,1.996,7.79,1111122 
DISL,ioos:station:DISL:CATA:1,2012-01-01T15:30:00Z,30.3085,-88.1395,1.993,7.8,1111122 
DISL,ioos:station:DISL:CATA:1,2012-01-01T16:00:00Z,30.3085,-88.1395,2.003,8.18,1111122 
DISL,ioos:station:DISL:CATA:1,2012-01-01T16:30:00Z,30.3085,-88.1395,2.011,8.86,1111122 
DISL,ioos:station:DISL:CATA:1,2012-01-01T17:00:00Z,30.3085,-88.1395,2.011,9.27,1111122 
DISL,ioos:station:DISL:CATA:1,2012-01-01T17:30:00Z,30.3085,-88.1395,2.021,9.28,1111122 
DISL,ioos:station:DISL:CATA:1,2012-01-01T18:00:00Z,30.3085,-88.1395,2.054,9.41,1111122 
DISL,ioos:station:DISL:CATA:1,2012-01-01T18:30:00Z,30.3085,-88.1395,2.041,9.71,1111122 
DISL,ioos:station:DISL:CATA:1,2012-01-01T19:00:00Z,30.3085,-88.1395,2.065,9.73,1111122 
DISL,ioos:station:DISL:CATA:1,2012-01-01T19:30:00Z,30.3085,-88.1395,2.077,9.72,1111122 
DISL,ioos:station:DISL:CATA:1,2012-01-01T20:00:00Z,30.3085,-88.1395,2.104,9.92,1111122 
DISL,ioos:station:DISL:CATA:1,2012-01-01T20:30:00Z,30.3085,-88.1395,2.106,9.98,1111122 
DISL,ioos:station:DISL:CATA:1,2012-01-01T21:00:00Z,30.3085,-88.1395,2.115,9.88,1111122 
DISL,ioos:station:DISL:CATA:1,2012-01-01T21:30:00Z,30.3085,-88.1395,2.115,9.82,1111122 
DISL,ioos:station:DISL:CATA:1,2012-01-01T22:00:00Z,30.3085,-88.1395,2.124,9.6,1111122 
DISL,ioos:station:DISL:CATA:1,2012-01-01T22:30:00Z,30.3085,-88.1395,2.113,9.34,1111122 
DISL,ioos:station:DISL:CATA:1,2012-01-01T23:00:00Z,30.3085,-88.1395,2.106,9.08,1111122 
DISL,ioos:station:DISL:CATA:1,2012-01-01T23:30:00Z,30.3085,-88.1395,2.103,8.95,1111122 
DISL,ioos:station:DISL:CATA:1,2012-01-02T00:00:00Z,30.3085,-88.1395,2.112,8.72,1111122 
DISL,ioos:station:DISL:CATA:1,2012-01-02T00:30:00Z,30.3085,-88.1395,2.083,8.74,1111122 
DISL,ioos:station:DISL:CATA:1,2012-01-02T01:00:00Z,30.3085,-88.1395,2.064,8.99,1111122 
DISL,ioos:station:DISL:CATA:1,2012-01-02T01:30:00Z,30.3085,-88.1395,2.052,8.54,1111122 
DISL,ioos:station:DISL:CATA:1,2012-01-02T02:00:00Z,30.3085,-88.1395,2.036,8.33,1111122 
DISL,ioos:station:DISL:CATA:1,2012-01-02T02:30:00Z,30.3085,-88.1395,2.002,8.31,1111122 
DISL,ioos:station:DISL:CATA:1,2012-01-02T03:00:00Z,30.3085,-88.1395,1.964,7.99,1111122 
DISL,ioos:station:DISL:CATA:1,2012-01-02T03:30:00Z,30.3085,-88.1395,1.921,8.14,1111122 
DISL,ioos:station:DISL:CATA:1,2012-01-02T04:00:00Z,30.3085,-88.1395,1.863,7.92,1111122 
DISL,ioos:station:DISL:CATA:1,2012-01-02T04:30:00Z,30.3085,-88.1395,1.828,7.75,1111122 
DISL,ioos:station:DISL:CATA:1,2012-01-02T05:00:00Z,30.3085,-88.1395,1.802,7.6,1111122 
DISL,ioos:station:DISL:CATA:1,2012-01-02T05:30:00Z,30.3085,-88.1395,1.761,7.58,1111122 
DISL,ioos:station:DISL:CATA:1,2012-01-02T06:00:00Z,30.3085,-88.1395,1.707,7.57,1111122 
DISL,ioos:station:DISL:CATA:1,2012-01-02T06:30:00Z,30.3085,-88.1395,1.691,7.51,1111122 
DISL,ioos:station:DISL:CATA:1,2012-01-02T07:00:00Z,30.3085,-88.1395,1.668,7.72,1111122 
DISL,ioos:station:DISL:CATA:1,2012-01-02T07:30:00Z,30.3085,-88.1395,1.637,7.88,1111122 
DISL,ioos:station:DISL:CATA:1,2012-01-02T08:00:00Z,30.3085,-88.1395,1.645,7.98,1111122 
DISL,ioos:station:DISL:CATA:1,2012-01-02T08:30:00Z,30.3085,-88.1395,1.642,7.97,1111122 
DISL,ioos:station:DISL:CATA:1,2012-01-02T09:00:00Z,30.3085,-88.1395,1.646,8.03,1111122 
DISL,ioos:station:DISL:CATA:1,2012-01-02T09:30:00Z,30.3085,-88.1395,1.66,8.0,1111122 
DISL,ioos:station:DISL:CATA:1,2012-01-02T10:00:00Z,30.3085,-88.1395,1.663,8.04,1111122 
DISL,ioos:station:DISL:CATA:1,2012-01-02T10:30:00Z,30.3085,-88.1395,1.668,8.04,1111122 
DISL,ioos:station:DISL:CATA:1,2012-01-02T11:00:00Z,30.3085,-88.1395,1.644,7.93,1111122 
DISL,ioos:station:DISL:CATA:1,2012-01-02T11:30:00Z,30.3085,-88.1395,1.633,7.86,1111122 
DISL,ioos:station:DISL:CATA:1,2012-01-02T12:00:00Z,30.3085,-88.1395,1.652,7.83,1111122 
DISL,ioos:station:DISL:CATA:1,2012-01-02T12:30:00Z,30.3085,-88.1395,1.66,7.84,1111122 
DISL,ioos:station:DISL:CATA:1,2012-01-02T13:00:00Z,30.3085,-88.1395,1.678,7.99,1111122 
DISL,ioos:station:DISL:CATA:1,2012-01-02T13:30:00Z,30.3085,-88.1395,1.687,7.84,1111122 
DISL,ioos:station:DISL:CATA:1,2012-01-02T14:00:00Z,30.3085,-88.1395,1.711,8.0,1111122 
DISL,ioos:station:DISL:CATA:1,2012-01-02T14:30:00Z,30.3085,-88.1395,1.705,8.37,1111122 
DISL,ioos:station:DISL:CATA:1,2012-01-02T15:00:00Z,30.3085,-88.1395,1.711,8.54,1111122 
DISL,ioos:station:DISL:CATA:1,2012-01-02T15:30:00Z,30.3085,-88.1395,1.715,8.79,1111122 
DISL,ioos:station:DISL:CATA:1,2012-01-02T16:00:00Z,30.3085,-88.1395,1.739,8.94,1111122 
DISL,ioos:station:DISL:CATA:1,2012-01-02T16:30:00Z,30.3085,-88.1395,1.763,9.11,1111122 
DISL,ioos:station:DISL:CATA:1,2012-01-02T17:00:00Z,30.3085,-88.1395,1.783,9.28,1111122 
DISL,ioos:station:DISL:CATA:1,2012-01-02T17:30:00Z,30.3085,-88.1395,1.82,9.37,1111122 
DISL,ioos:station:DISL:CATA:1,2012-01-02T18:00:00Z,30.3085,-88.1395,1.855,9.46,1111122 
DISL,ioos:station:DISL:CATA:1,2012-01-02T18:30:00Z,30.3085,-88.1395,1.857,9.48,1111122 
DISL,ioos:station:DISL:CATA:1,2012-01-02T19:00:00Z,30.3085,-88.1395,1.882,9.58,1111122 
DISL,ioos:station:DISL:CATA:1,2012-01-02T19:30:00Z,30.3085,-88.1395,1.9,9.69,1111122 
DISL,ioos:station:DISL:CATA:1,2012-01-02T20:00:00Z,30.3085,-88.1395,1.917,9.76,1111122 
DISL,ioos:station:DISL:CATA:1,2012-01-02T20:30:00Z,30.3085,-88.1395,1.924,9.83,1111122 
DISL,ioos:station:DISL:CATA:1,2012-01-02T21:00:00Z,30.3085,-88.1395,1.94,10.05,1111122 
DISL,ioos:station:DISL:CATA:1,2012-01-02T21:30:00Z,30.3085,-88.1395,1.952,10.13,1111122 
DISL,ioos:station:DISL:CATA:1,2012-01-02T22:00:00Z,30.3085,-88.1395,1.971,10.15,1111122 
DISL,ioos:station:DISL:CATA:1,2012-01-02T22:30:00Z,30.3085,-88.1395,1.987,10.14,1111122 
DISL,ioos:station:DISL:CATA:1,2012-01-02T23:00:00Z,30.3085,-88.1395,1.994,9.94,1111122 
DISL,ioos:station:DISL:CATA:1,2012-01-02T23:30:00Z,30.3085,-88.1395,1.989,9.8,1111122 
DISL,ioos:station:DISL:CATA:1,2012-01-03T00:00:00Z,30.3085,-88.1395,1.985,9.58,1111122 
DISL,ioos:station:DISL:CATA:1,2012-01-03T00:30:00Z,30.3085,-88.1395,1.986,9.55,1111122 
DISL,ioos:station:DISL:CATA:1,2012-01-03T01:00:00Z,30.3085,-88.1395,1.996,9.51,1111122 
DISL,ioos:station:DISL:CATA:1,2012-01-03T01:30:00Z,30.3085,-88.1395,1.997,9.45,1111122 
DISL,ioos:station:DISL:CATA:1,2012-01-03T02:00:00Z,30.3085,-88.1395,1.983,9.22,1111122 
DISL,ioos:station:DISL:CATA:1,2012-01-03T02:30:00Z,30.3085,-88.1395,1.962,9.09,1111122 
DISL,ioos:station:DISL:CATA:1,2012-01-03T03:00:00Z,30.3085,-88.1395,1.921,9.09,1111122 
DISL,ioos:station:DISL:CATA:1,2012-01-03T03:30:00Z,30.3085,-88.1395,1.889,8.96,1111122 
DISL,ioos:station:DISL:CATA:1,2012-01-03T04:00:00Z,30.3085,-88.1395,1.829,8.87,1111122 
DISL,ioos:station:DISL:CATA:1,2012-01-03T04:30:00Z,30.3085,-88.1395,1.792,8.99,1111122 
DISL,ioos:station:DISL:CATA:1,2012-01-03T05:00:00Z,30.3085,-88.1395,1.743,9.68,1111122 
DISL,ioos:station:DISL:CATA:1,2012-01-03T05:30:00Z,30.3085,-88.1395,1.696,9.37,1111122 
DISL,ioos:station:DISL:CATA:1,2012-01-03T06:00:00Z,30.3085,-88.1395,1.655,9.37,1111122 
DISL,ioos:station:DISL:CATA:1,2012-01-03T06:30:00Z,30.3085,-88.1395,1.613,9.52,1111122 
DISL,ioos:station:DISL:CATA:1,2012-01-03T07:00:00Z,30.3085,-88.1395,1.569,9.48,1111122 
DISL,ioos:station:DISL:CATA:1,2012-01-03T07:30:00Z,30.3085,-88.1395,1.528,9.32,1111122 
DISL,ioos:station:DISL:CATA:1,2012-01-03T08:00:00Z,30.3085,-88.1395,1.508,9.23,1111122 
DISL,ioos:station:DISL:CATA:1,2012-01-03T08:30:00Z,30.3085,-88.1395,1.504,9.2,1111122 
DISL,ioos:station:DISL:CATA:1,2012-01-03T09:00:00Z,30.3085,-88.1395,1.504,9.17,1111122 
DISL,ioos:station:DISL:CATA:1,2012-01-03T09:30:00Z,30.3085,-88.1395,1.505,9.2,1111122 
DISL,ioos:station:DISL:CATA:1,2012-01-03T10:00:00Z,30.3085,-88.1395,1.502,9.2,1111122 
DISL,ioos:station:DISL:CATA:1,2012-01-03T10:30:00Z,30.3085,-88.1395,1.492,9.19,1111122 
DISL,ioos:station:DISL:CATA:1,2012-01-03T11:00:00Z,30.3085,-88.1395,1.467,9.13,1111122 
DISL,ioos:station:DISL:CATA:1,2012-01-03T11:30:00Z,30.3085,-88.1395,1.439,9.14,1111122 
DISL,ioos:station:DISL:CATA:1,2012-01-03T12:00:00Z,30.3085,-88.1395,1.42,9.11,1111122 
DISL,ioos:station:DISL:CATA:1,2012-01-03T12:30:00Z,30.3085,-88.1395,1.413,9.07,1111122 
DISL,ioos:station:DISL:CATA:1,2012-01-03T13:00:00Z,30.3085,-88.1395,1.429,9.06,1111122 
DISL,ioos:station:DISL:CATA:1,2012-01-03T13:30:00Z,30.3085,-88.1395,1.446,9.08,1111122 
DISL,ioos:station:DISL:CATA:1,2012-01-03T14:00:00Z,30.3085,-88.1395,1.455,9.13,1111122 
DISL,ioos:station:DISL:CATA:1,2012-01-03T14:30:00Z,30.3085,-88.1395,1.477,9.2,1111122 
DISL,ioos:station:DISL:CATA:1,2012-01-03T15:00:00Z,30.3085,-88.1395,1.506,9.29,1111122 
DISL,ioos:station:DISL:CATA:1,2012-01-03T15:30:00Z,30.3085,-88.1395,1.536,9.33,1111122 
DISL,ioos:station:DISL:CATA:1,2012-01-03T16:00:00Z,30.3085,-88.1395,1.557,9.75,1111122 
DISL,ioos:station:DISL:CATA:1,2012-01-03T16:30:00Z,30.3085,-88.1395,1.556,9.96,1111122 
DISL,ioos:station:DISL:CATA:1,2012-01-03T17:00:00Z,30.3085,-88.1395,1.572,10.12,1111122 
DISL,ioos:station:DISL:CATA:1,2012-01-03T17:30:00Z,30.3085,-88.1395,1.586,10.22,1111122 
DISL,ioos:station:DISL:CATA:1,2012-01-03T18:00:00Z,30.3085,-88.1395,1.604,10.26,1111122 
DISL,ioos:station:DISL:CATA:1,2012-01-03T18:30:00Z,30.3085,-88.1395,1.634,10.35,1111122 
DISL,ioos:station:DISL:CATA:1,2012-01-03T19:00:00Z,30.3085,-88.1395,1.67,10.44,1111122 
DISL,ioos:station:DISL:CATA:1,2012-01-03T19:30:00Z,30.3085,-88.1395,1.715,10.49,1111122 
DISL,ioos:station:DISL:CATA:1,2012-01-03T20:00:00Z,30.3085,-88.1395,1.73,10.5,1111122 
DISL,ioos:station:DISL:CATA:1,2012-01-03T20:30:00Z,30.3085,-88.1395,1.765,10.5,1111122 
DISL,ioos:station:DISL:CATA:1,2012-01-03T21:00:00Z,30.3085,-88.1395,1.795,10.53,1111122 
DISL,ioos:station:DISL:CATA:1,2012-01-03T21:30:00Z,30.3085,-88.1395,1.814,10.64,1111122 
DISL,ioos:station:DISL:CATA:1,2012-01-03T22:00:00Z,30.3085,-88.1395,1.827,10.57,1111122 
DISL,ioos:station:DISL:CATA:1,2012-01-03T22:30:00Z,30.3085,-88.1395,1.836,10.58,1111122 
DISL,ioos:station:DISL:CATA:1,2012-01-03T23:00:00Z,30.3085,-88.1395,1.842,10.58,1111122 
DISL,ioos:station:DISL:CATA:1,2012-01-03T23:30:00Z,30.3085,-88.1395,1.844,10.51,1111122 
DISL,ioos:station:DISL:CATA:1,2012-01-04T00:00:00Z,30.3085,-88.1395,1.848,10.48,1111122 
DISL,ioos:station:DISL:CATA:1,2012-01-04T00:30:00Z,30.3085,-88.1395,1.852,10.42,1111122 
DISL,ioos:station:DISL:CATA:1,2012-01-04T01:00:00Z,30.3085,-88.1395,1.857,10.13,1111122 
DISL,ioos:station:DISL:CATA:1,2012-01-04T01:30:00Z,30.3085,-88.1395,1.856,9.95,1111122 
DISL,ioos:station:DISL:CATA:1,2012-01-04T02:00:00Z,30.3085,-88.1395,1.863,9.96,1111122 
DISL,ioos:station:DISL:CATA:1,2012-01-04T02:30:00Z,30.3085,-88.1395,1.859,9.85,1111122 
DISL,ioos:station:DISL:CATA:1,2012-01-04T03:00:00Z,30.3085,-88.1395,1.846,9.71,1111122 
DISL,ioos:station:DISL:CATA:1,2012-01-04T03:30:00Z,30.3085,-88.1395,1.834,9.79,1111122 
DISL,ioos:station:DISL:CATA:1,2012-01-04T04:00:00Z,30.3085,-88.1395,1.813,9.77,1111122 
DISL,ioos:station:DISL:CATA:1,2012-01-04T04:30:00Z,30.3085,-88.1395,1.785,9.72,1111122 
DISL,ioos:station:DISL:CATA:1,2012-01-04T05:00:00Z,30.3085,-88.1395,1.752,9.74,1111122 
DISL,ioos:station:DISL:CATA:1,2012-01-04T05:30:00Z,30.3085,-88.1395,1.711,10.09,1111122 
DISL,ioos:station:DISL:CATA:1,2012-01-04T06:00:00Z,30.3085,-88.1395,1.674,10.59,1111122 
DISL,ioos:station:DISL:CATA:1,2012-01-04T06:30:00Z,30.3085,-88.1395,1.636,10.49,1111122 
DISL,ioos:station:DISL:CATA:1,2012-01-04T07:00:00Z,30.3085,-88.1395,1.617,10.23,1111122 
DISL,ioos:station:DISL:CATA:1,2012-01-04T07:30:00Z,30.3085,-88.1395,1.586,10.3,1111122 
DISL,ioos:station:DISL:CATA:1,2012-01-04T08:00:00Z,30.3085,-88.1395,1.565,10.18,1111122 
DISL,ioos:station:DISL:CATA:1,2012-01-04T08:30:00Z,30.3085,-88.1395,1.555,10.1,1111122 
DISL,ioos:station:DISL:CATA:1,2012-01-04T09:00:00Z,30.3085,-88.1395,1.535,10.11,1111122 
DISL,ioos:station:DISL:CATA:1,2012-01-04T09:30:00Z,30.3085,-88.1395,1.527,10.07,1111122 
DISL,ioos:station:DISL:CATA:1,2012-01-04T10:00:00Z,30.3085,-88.1395,1.528,10.04,1111122 
DISL,ioos:station:DISL:CATA:1,2012-01-04T10:30:00Z,30.3085,-88.1395,1.52,9.99,1111122 
DISL,ioos:station:DISL:CATA:1,2012-01-04T11:00:00Z,30.3085,-88.1395,1.521,9.95,1111122 
DISL,ioos:station:DISL:CATA:1,2012-01-04T11:30:00Z,30.3085,-88.1395,1.512,9.92,1111122 
DISL,ioos:station:DISL:CATA:1,2012-01-04T12:00:00Z,30.3085,-88.1395,1.515,9.83,1111122 
DISL,ioos:station:DISL:CATA:1,2012-01-04T12:30:00Z,30.3085,-88.1395,1.52,9.79,1111122 
DISL,ioos:station:DISL:CATA:1,2012-01-04T13:00:00Z,30.3085,-88.1395,1.53,9.73,1111122 
DISL,ioos:station:DISL:CATA:1,2012-01-04T13:30:00Z,30.3085,-88.1395,1.548,9.71,1111122 
DISL,ioos:station:DISL:CATA:1,2012-01-04T14:00:00Z,30.3085,-88.1395,1.573,9.72,1111122 
DISL,ioos:station:DISL:CATA:1,2012-01-04T14:30:00Z,30.3085,-88.1395,1.601,9.85,1111122 
DISL,ioos:station:DISL:CATA:1,2012-01-04T15:00:00Z,30.3085,-88.1395,1.633,9.81,1111122 
DISL,ioos:station:DISL:CATA:1,2012-01-04T15:30:00Z,30.3085,-88.1395,1.662,9.85,1111122 
DISL,ioos:station:DISL:CATA:1,2012-01-04T16:00:00Z,30.3085,-88.1395,1.691,9.91,1111122 
DISL,ioos:station:DISL:CATA:1,2012-01-04T16:30:00Z,30.3085,-88.1395,1.708,10.09,1111122 
DISL,ioos:station:DISL:CATA:1,2012-01-04T17:00:00Z,30.3085,-88.1395,1.729,10.3,1111122 
DISL,ioos:station:DISL:CATA:1,2012-01-04T17:30:00Z,30.3085,-88.1395,1.75,10.29,1111122 
DISL,ioos:station:DISL:CATA:1,2012-01-04T18:00:00Z,30.3085,-88.1395,1.776,10.34,1111122 
DISL,ioos:station:DISL:CATA:1,2012-01-04T18:30:00Z,30.3085,-88.1395,1.805,10.38,1111122 
DISL,ioos:station:DISL:CATA:1,2012-01-04T19:00:00Z,30.3085,-88.1395,1.836,10.42,1111122 
DISL,ioos:station:DISL:CATA:1,2012-01-04T19:30:00Z,30.3085,-88.1395,1.863,10.44,1111122 
DISL,ioos:station:DISL:CATA:1,2012-01-04T20:00:00Z,30.3085,-88.1395,1.891,10.51,1111122 
DISL,ioos:station:DISL:CATA:1,2012-01-04T20:30:00Z,30.3085,-88.1395,1.928,10.53,1111122 
DISL,ioos:station:DISL:CATA:1,2012-01-04T21:00:00Z,30.3085,-88.1395,1.965,10.59,1111122 
DISL,ioos:station:DISL:CATA:1,2012-01-04T21:30:00Z,30.3085,-88.1395,2.002,10.66,1111122 
DISL,ioos:station:DISL:CATA:1,2012-01-04T22:00:00Z,30.3085,-88.1395,2.016,10.77,1111122 
DISL,ioos:station:DISL:CATA:1,2012-01-04T22:30:00Z,30.3085,-88.1395,2.048,10.85,1111122 
DISL,ioos:station:DISL:CATA:1,2012-01-04T23:00:00Z,30.3085,-88.1395,2.066,10.88,1111122 
DISL,ioos:station:DISL:CATA:1,2012-01-04T23:30:00Z,30.3085,-88.1395,2.085,10.93,1111122 
DISL,ioos:station:DISL:CATA:1,2012-01-05T00:00:00Z,30.3085,-88.1395,2.09,10.92,1111122 
DISL,ioos:station:DISL:CATA:1,2012-01-05T00:30:00Z,30.3085,-88.1395,2.102,10.89,1111122 
DISL,ioos:station:DISL:CATA:1,2012-01-05T01:00:00Z,30.3085,-88.1395,2.115,10.78,1111122 
DISL,ioos:station:DISL:CATA:1,2012-01-05T01:30:00Z,30.3085,-88.1395,2.122,10.67,1111122 
DISL,ioos:station:DISL:CATA:1,2012-01-05T02:00:00Z,30.3085,-88.1395,2.101,10.67,1111122 
DISL,ioos:station:DISL:CATA:1,2012-01-05T02:30:00Z,30.3085,-88.1395,2.113,10.65,1111122 
DISL,ioos:station:DISL:CATA:1,2012-01-05T03:00:00Z,30.3085,-88.1395,2.099,10.65,1111122 
DISL,ioos:station:DISL:CATA:1,2012-01-05T03:30:00Z,30.3085,-88.1395,2.068,10.59,1111122 
DISL,ioos:station:DISL:CATA:1,2012-01-05T04:00:00Z,30.3085,-88.1395,2.029,10.61,1111122 
DISL,ioos:station:DISL:CATA:1,2012-01-05T04:30:00Z,30.3085,-88.1395,2.007,10.5,1111122 
DISL,ioos:station:DISL:CATA:1,2012-01-05T05:00:00Z,30.3085,-88.1395,1.969,10.56,1111122 
DISL,ioos:station:DISL:CATA:1,2012-01-05T05:30:00Z,30.3085,-88.1395,1.939,10.65,1111122 
DISL,ioos:station:DISL:CATA:1,2012-01-05T06:00:00Z,30.3085,-88.1395,1.895,10.89,1111122 
DISL,ioos:station:DISL:CATA:1,2012-01-05T06:30:00Z,30.3085,-88.1395,1.851,10.85,1111122 
DISL,ioos:station:DISL:CATA:1,2012-01-05T07:00:00Z,30.3085,-88.1395,1.808,10.79,1111122 
DISL,ioos:station:DISL:CATA:1,2012-01-05T07:30:00Z,30.3085,-88.1395,1.763,10.79,1111122 
DISL,ioos:station:DISL:CATA:1,2012-01-05T08:00:00Z,30.3085,-88.1395,1.721,10.75,1111122 
DISL,ioos:station:DISL:CATA:1,2012-01-05T08:30:00Z,30.3085,-88.1395,1.684,10.72,1111122 
DISL,ioos:station:DISL:CATA:1,2012-01-05T09:00:00Z,30.3085,-88.1395,1.657,10.48,1111122 
DISL,ioos:station:DISL:CATA:1,2012-01-05T09:30:00Z,30.3085,-88.1395,1.631,10.26,1111122 
DISL,ioos:station:DISL:CATA:1,2012-01-05T10:00:00Z,30.3085,-88.1395,1.608,10.22,1111122 
DISL,ioos:station:DISL:CATA:1,2012-01-05T10:30:00Z,30.3085,-88.1395,1.591,10.14,1111122 
DISL,ioos:station:DISL:CATA:1,2012-01-05T11:00:00Z,30.3085,-88.1395,1.571,10.08,1111122 
DISL,ioos:station:DISL:CATA:1,2012-01-05T11:30:00Z,30.3085,-88.1395,1.558,10.07,1111122 
DISL,ioos:station:DISL:CATA:1,2012-01-05T12:00:00Z,30.3085,-88.1395,1.552,10.0,1111122 
DISL,ioos:station:DISL:CATA:1,2012-01-05T12:30:00Z,30.3085,-88.1395,1.554,9.93,1111122 
DISL,ioos:station:DISL:CATA:1,2012-01-05T13:00:00Z,30.3085,-88.1395,1.561,9.93,1111122 
DISL,ioos:station:DISL:CATA:1,2012-01-05T13:30:00Z,30.3085,-88.1395,1.575,9.96,1111122 
DISL,ioos:station:DISL:CATA:1,2012-01-05T14:00:00Z,30.3085,-88.1395,1.587,10.01,1111122 
DISL,ioos:station:DISL:CATA:1,2012-01-05T14:30:00Z,30.3085,-88.1395,1.613,10.05,1111122 
DISL,ioos:station:DISL:CATA:1,2012-01-05T15:00:00Z,30.3085,-88.1395,1.632,10.01,1111122 
DISL,ioos:station:DISL:CATA:1,2012-01-05T15:30:00Z,30.3085,-88.1395,1.655,10.09,1111122 
DISL,ioos:station:DISL:CATA:1,2012-01-05T16:00:00Z,30.3085,-88.1395,1.669,10.55,1111122 
DISL,ioos:station:DISL:CATA:1,2012-01-05T16:30:00Z,30.3085,-88.1395,1.696,10.6,1111122 
DISL,ioos:station:DISL:CATA:1,2012-01-05T17:00:00Z,30.3085,-88.1395,1.714,10.68,1111122 
DISL,ioos:station:DISL:CATA:1,2012-01-05T17:30:00Z,30.3085,-88.1395,1.735,10.77,1111122 
DISL,ioos:station:DISL:CATA:1,2012-01-05T18:00:00Z,30.3085,-88.1395,1.758,10.8,1111122 
DISL,ioos:station:DISL:CATA:1,2012-01-05T18:30:00Z,30.3085,-88.1395,1.787,10.9,1111122 
DISL,ioos:station:DISL:CATA:1,2012-01-05T19:00:00Z,30.3085,-88.1395,1.815,10.96,1111122 
DISL,ioos:station:DISL:CATA:1,2012-01-05T19:30:00Z,30.3085,-88.1395,1.849,11.05,1111122 
DISL,ioos:station:DISL:CATA:1,2012-01-05T20:00:00Z,30.3085,-88.1395,1.886,11.1,1111122 
DISL,ioos:station:DISL:CATA:1,2012-01-05T20:30:00Z,30.3085,-88.1395,1.923,11.12,1111122 
DISL,ioos:station:DISL:CATA:1,2012-01-05T21:00:00Z,30.3085,-88.1395,1.957,11.53,1111122 
DISL,ioos:station:DISL:CATA:1,2012-01-05T21:30:00Z,30.3085,-88.1395,1.994,11.52,1111122 
DISL,ioos:station:DISL:CATA:1,2012-01-05T22:00:00Z,30.3085,-88.1395,2.023,11.51,1111122 
DISL,ioos:station:DISL:CATA:1,2012-01-05T22:30:00Z,30.3085,-88.1395,2.054,11.42,1111122 
DISL,ioos:station:DISL:CATA:1,2012-01-05T23:00:00Z,30.3085,-88.1395,2.085,11.27,1111122 
DISL,ioos:station:DISL:CATA:1,2012-01-05T23:30:00Z,30.3085,-88.1395,2.11,11.12,1111122 
DISL,ioos:station:DISL:CATA:1,2012-01-06T00:00:00Z,30.3085,-88.1395,2.117,11.02,1111122 
DISL,ioos:station:DISL:CATA:1,2012-01-06T00:30:00Z,30.3085,-88.1395,2.133,10.99,1111122 
DISL,ioos:station:DISL:CATA:1,2012-01-06T01:00:00Z,30.3085,-88.1395,2.145,10.96,1111122 
DISL,ioos:station:DISL:CATA:1,2012-01-06T01:30:00Z,30.3085,-88.1395,2.155,10.92,1111122 
DISL,ioos:station:DISL:CATA:1,2012-01-06T02:00:00Z,30.3085,-88.1395,2.167,10.87,1111122 
DISL,ioos:station:DISL:CATA:1,2012-01-06T02:30:00Z,30.3085,-88.1395,2.166,10.71,1111122 
DISL,ioos:station:DISL:CATA:1,2012-01-06T03:00:00Z,30.3085,-88.1395,2.158,10.63,1111122 
DISL,ioos:station:DISL:CATA:1,2012-01-06T03:30:00Z,30.3085,-88.1395,2.14,10.35,1111122 
DISL,ioos:station:DISL:CATA:1,2012-01-06T04:00:00Z,30.3085,-88.1395,2.121,10.22,1111122 
DISL,ioos:station:DISL:CATA:1,2012-01-06T04:30:00Z,30.3085,-88.1395,2.093,10.02,1111122 
DISL,ioos:station:DISL:CATA:1,2012-01-06T05:00:00Z,30.3085,-88.1395,2.058,9.88,1111122 
DISL,ioos:station:DISL:CATA:1,2012-01-06T05:30:00Z,30.3085,-88.1395,2.02,10.16,1111122 
DISL,ioos:station:DISL:CATA:1,2012-01-06T06:00:00Z,30.3085,-88.1395,1.979,10.45,1111122 
DISL,ioos:station:DISL:CATA:1,2012-01-06T06:30:00Z,30.3085,-88.1395,1.937,11.04,1111122 
DISL,ioos:station:DISL:CATA:1,2012-01-06T07:00:00Z,30.3085,-88.1395,1.891,11.04,1111122 
DISL,ioos:station:DISL:CATA:1,2012-01-06T07:30:00Z,30.3085,-88.1395,1.852,11.02,1111122 
DISL,ioos:station:DISL:CATA:1,2012-01-06T08:00:00Z,30.3085,-88.1395,1.812,10.87,1111122 
DISL,ioos:station:DISL:CATA:1,2012-01-06T08:30:00Z,30.3085,-88.1395,1.774,10.67,1111122 
DISL,ioos:station:DISL:CATA:1,2012-01-06T09:00:00Z,30.3085,-88.1395,1.743,10.76,1111122 
DISL,ioos:station:DISL:CATA:1,2012-01-06T09:30:00Z,30.3085,-88.1395,1.71,10.92,1111122 
DISL,ioos:station:DISL:CATA:1,2012-01-06T10:00:00Z,30.3085,-88.1395,1.679,10.96,1111122 
DISL,ioos:station:DISL:CATA:1,2012-01-06T10:30:00Z,30.3085,-88.1395,1.655,10.97,1111122 
DISL,ioos:station:DISL:CATA:1,2012-01-06T11:00:00Z,30.3085,-88.1395,1.634,10.99,1111122 
DISL,ioos:station:DISL:CATA:1,2012-01-06T11:30:00Z,30.3085,-88.1395,1.622,11.01,1111122 
DISL,ioos:station:DISL:CATA:1,2012-01-06T12:00:00Z,30.3085,-88.1395,1.612,11.04,1111122 
DISL,ioos:station:DISL:CATA:1,2012-01-06T12:30:00Z,30.3085,-88.1395,1.611,11.09,1111122 
DISL,ioos:station:DISL:CATA:1,2012-01-06T13:00:00Z,30.3085,-88.1395,1.616,11.21,1111122 
DISL,ioos:station:DISL:CATA:1,2012-01-06T13:30:00Z,30.3085,-88.1395,1.629,11.32,1111122 
DISL,ioos:station:DISL:CATA:1,2012-01-06T14:00:00Z,30.3085,-88.1395,1.646,11.37,1111122 
DISL,ioos:station:DISL:CATA:1,2012-01-06T14:30:00Z,30.3085,-88.1395,1.673,11.4,1111122 